Date,TemperatureHighF,TemperatureAvgF,TemperatureLowF,DewpointHighF,DewpointAvgF,DewpointLowF,HumidityHigh,HumidityAvg,HumidityLow,PressureMaxIn,PressureMinIn,WindSpeedMaxMPH,WindSpeedAvgMPH,GustSpeedMaxMPH,PrecipitationSumIn
2014-1-4,34,24,20,23,13,-100,75,66,62,30.54,30.39,21,11,24,0.00
2014-1-5,46,37,36,46,36,29,100,95,76,30.30,29.76,23,10,24,0.00
2014-1-6,51,41,20,51,37,7,100,84,57,29.91,29.50,40,24,44,0.00
2014-1-7,17,11,6,3,-2,-6,62,56,47,30.48,30.08,31,19,41,0.00
2014-1-8,26,17,14,19,4,1,73,57,51,30.65,30.48,13,8,15,0.00
2014-1-9,33,30,29,28,26,23,92,86,71,30.68,30.51,13,9,13,0.00
2014-1-10,35,33,31,35,33,31,100,100,100,30.51,30.18,13,6,14,0.00
2014-1-12,52,46,43,52,38,34,100,72,62,30.14,29.55,21,12,23,0.00
2014-1-13,43,40,36,43,40,36,100,100,100,30.13,29.96,20,14,21,0.00
2014-1-14,48,44,41,48,44,41,100,100,99,29.93,29.74,18,9,18,0.00
2014-1-15,42,39,36,42,39,36,100,100,91,30.01,29.90,20,8,22,0.00
2014-1-16,39,35,34,36,30,24,100,82,58,30.03,29.91,18,10,22,0.00
2014-1-17,42,38,34,37,35,33,100,88,69,30.00,29.87,17,10,18,0.00
2014-1-18,38,31,26,38,23,-100,100,77,59,30.01,29.80,23,17,29,0.00
2014-1-19,43,29,25,31,20,15,73,69,63,30.00,29.79,21,9,24,0.00
2014-1-20,53,44,40,35,33,31,73,65,46,29.91,29.69,20,10,21,0.00
2014-1-21,41,29,18,33,27,18,100,93,72,29.90,29.73,37,23,41,0.00
2014-1-22,17,12,8,17,4,0,99,68,58,30.11,29.86,30,22,38,0.00
2014-1-23,24,18,15,15,8,4,68,63,58,30.43,30.11,26,14,29,0.00
2014-1-24,20,14,11,6,4,2,69,63,50,30.55,30.40,24,18,29,0.00
2014-1-25,33,28,27,25,13,-100,73,69,62,29.62,29.52,25,19,31,0.00
2014-1-26,33,27,23,28,17,11,82,66,56,29.96,29.65,30,13,34,0.00
2014-1-27,46,35,23,36,22,8,78,59,50,30.16,29.72,33,23,38,0.00
2014-1-28,22,16,12,13,3,0,96,57,49,30.46,30.17,30,15,33,0.00
2014-1-29,23,16,13,14,9,2,100,75,46,30.39,30.23,15,11,18,0.00
2014-1-30,27,23,19,18,10,6,72,58,53,30.51,30.24,13,8,15,0.00
2014-1-31,36,30,27,26,21,18,88,69,50,30.23,30.16,14,7,14,0.00
2014-2-1,41,36,32,40,28,-100,100,76,63,30.32,30.05,16,4,17,0.00
2014-2-2,46,40,35,39,37,35,100,92,66,30.06,29.96,16,8,16,0.00
2014-2-3,42,36,33,42,36,33,100,100,99,30.33,30.01,24,18,26,0.00
2014-2-4,33,30,28,33,29,26,100,96,83,30.50,30.23,16,11,18,0.00
2014-2-5,41,34,31,39,33,27,100,96,69,30.18,29.72,31,11,38,0.00
2014-2-6,34,30,28,26,23,19,79,72,60,30.36,30.09,23,13,29,0.00
2014-2-7,34,32,30,29,27,25,88,81,73,30.38,30.29,9,5,10,0.00
2014-2-8,32,30,28,29,20,15,89,69,57,30.37,30.24,15,10,16,0.00
2014-2-9,33,30,27,33,27,20,100,90,73,30.23,30.02,16,6,18,0.00
2014-2-10,31,28,25,31,20,15,100,71,56,30.35,30.08,26,14,30,0.00
2014-2-11,28,24,21,17,15,12,77,67,58,30.49,30.36,18,12,21,0.00
2014-2-12,28,23,18,27,17,10,100,78,64,30.55,30.19,24,14,25,0.00
2014-2-18,54,38,29,36,32,28,100,83,44,30.27,30.04,20,11,21,0.00
2014-2-19,56,48,41,51,44,34,100,89,49,30.14,29.73,26,15,32,0.00
2014-2-20,48,42,39,42,36,34,100,79,63,30.28,30.00,9,5,11,0.00
2014-2-21,53,45,39,53,45,39,100,100,99,29.97,29.68,29,11,30,0.00
2014-2-22,45,39,39,39,31,-100,92,81,66,30.14,30.07,22,8,22,0.00
2014-2-23,51,48,45,38,36,35,72,64,56,30.04,29.89,21,14,22,0.00
2014-2-24,41,39,37,41,31,17,100,72,42,30.05,29.94,26,15,30,0.00
2014-2-25,34,32,29,33,26,18,100,82,51,30.16,30.03,16,7,17,0.00
2014-2-26,34,31,27,30,22,15,100,73,49,30.04,29.87,18,9,20,0.00
2014-2-27,35,29,22,23,15,10,69,57,41,30.11,29.71,30,17,34,0.00
2014-2-28,24,18,14,12,2,-1,59,49,36,30.46,30.14,29,12,32,0.00
2014-3-1,36,27,24,28,16,-100,73,64,54,30.42,30.24,14,8,16,0.00
2014-3-2,40,37,36,38,36,35,100,95,83,30.13,30.01,15,9,16,0.00
2014-3-3,35,24,18,35,20,11,100,88,66,30.37,30.02,32,19,34,0.00
2014-3-4,27,23,19,20,14,10,75,68,58,30.44,30.29,20,11,22,0.00
2014-3-5,37,30,27,24,21,20,78,68,54,30.38,30.23,28,9,31,0.00
2014-3-6,32,29,25,27,22,19,90,76,64,30.59,30.43,24,16,28,0.00
2014-3-7,38,33,30,35,33,29,100,97,88,30.39,29.94,23,20,24,0.00
2014-3-8,51,41,35,43,35,-100,100,83,66,29.98,29.89,13,9,14,0.00
2014-3-9,46,44,42,42,32,22,99,64,39,30.11,29.92,21,13,23,0.00
2014-3-10,40,40,40,29,29,29,65,65,65,30.05,30.05,3,3,5,0.00
2014-3-11,60,54,48,44,40,38,68,60,55,29.73,29.66,11,6,13,0.00
2014-3-12,57,46,38,57,20,-100,100,82,99,29.57,29.08,41,18,47,0.00
2014-3-13,35,28,22,26,15,7,70,57,43,30.20,29.44,39,28,45,0.00
2014-3-14,42,32,30,34,17,15,72,54,50,30.25,30.04,26,9,28,0.00
2014-3-15,62,55,53,41,26,-100,52,38,32,30.06,29.86,21,16,23,0.00
2014-3-16,47,38,30,34,30,26,100,75,58,30.22,30.08,21,15,23,0.00
2014-3-17,30,28,26,30,27,26,100,98,83,30.12,30.00,28,20,30,0.00
2014-3-18,39,35,31,35,29,20,91,79,62,30.27,30.09,21,15,23,0.00
2014-3-20,55,48,40,44,32,-100,100,64,28,30.02,29.84,25,14,29,0.00
2014-3-21,49,44,41,45,32,-100,100,68,42,30.11,30.03,15,6,15,0.00
2014-3-22,63,50,42,44,39,-100,100,69,42,30.05,29.86,22,13,23,0.00
2014-3-23,46,42,39,37,31,21,73,64,48,30.14,30.01,20,13,24,0.00
2014-3-24,37,30,25,22,16,11,62,56,48,30.34,30.17,22,13,25,0.00
2014-3-25,35,34,31,34,31,24,100,90,62,30.18,29.87,22,14,23,0.00
2014-3-26,32,31,30,32,24,15,100,78,49,30.11,29.89,31,21,41,0.00
2014-3-27,39,31,29,30,18,16,67,59,55,30.48,30.33,24,7,26,0.00
2014-3-28,64,50,42,54,47,42,100,90,57,30.14,30.02,24,18,26,0.00
2014-3-29,58,52,49,56,7,-100,100,70,99,30.11,29.58,22,10,24,0.00
2014-3-30,51,43,36,51,31,-100,100,92,100,29.79,29.46,28,20,34,0.00
2014-3-31,62,47,39,41,38,36,100,75,40,30.09,29.80,30,19,33,0.00
2014-4-1,54,45,43,45,37,-100,100,77,50,30.21,30.03,18,9,20,0.00
2014-4-2,55,47,43,49,45,43,100,92,72,30.14,30.03,23,8,25,0.00
2014-4-3,55,52,49,51,47,35,100,85,47,30.12,29.98,14,7,15,0.00
2014-4-4,54,50,46,52,48,43,100,93,78,29.99,29.72,20,12,24,0.00
2014-4-5,54,49,46,50,34,-100,100,76,52,30.15,29.75,24,12,28,0.00
2014-4-6,50,43,41,34,32,29,69,64,44,30.29,30.17,11,8,13,0.00
2014-4-7,53,47,41,53,38,-100,100,88,61,30.16,29.70,18,10,21,0.00
2014-4-8,62,55,49,57,12,-100,100,59,55,29.70,29.51,28,14,30,0.00
2014-4-9,63,54,46,42,38,33,84,57,34,30.03,29.70,20,10,24,0.00
2014-4-10,57,53,49,45,36,30,82,53,41,30.24,30.06,32,12,36,0.00
2014-4-11,70,62,53,51,44,40,85,54,38,30.09,29.92,23,14,23,0.00
2014-4-12,66,59,54,57,41,-100,100,68,32,30.29,30.06,18,8,20,0.00
2014-4-13,61,56,52,61,56,52,100,100,100,30.19,30.02,31,14,33,0.00
2014-4-14,62,58,56,62,58,56,100,100,100,30.03,29.85,25,22,29,0.00
2014-4-15,60,54,37,60,33,-100,100,87,100,29.99,29.56,31,25,34,0.00
2014-4-16,46,37,34,36,27,22,88,65,52,30.53,29.99,29,23,33,0.00
2014-4-17,48,44,41,39,37,31,90,75,58,30.68,30.55,20,14,22,0.00
2014-4-19,59,50,47,49,43,-100,100,82,59,30.32,30.26,11,3,13,0.00
2014-4-20,56,53,48,45,42,36,75,66,59,30.46,30.33,20,14,23,0.00
2014-4-21,60,51,45,50,42,34,90,72,60,30.32,29.97,14,8,15,0.00
2014-4-22,61,53,53,60,53,53,100,100,95,29.87,29.65,17,15,20,0.00
2014-4-23,60,54,49,54,42,37,80,65,59,29.98,29.64,29,23,34,0.00
2014-4-24,62,52,45,39,22,-100,68,46,32,30.12,29.99,21,13,22,0.00
2014-4-25,57,53,51,54,47,37,100,82,56,30.04,29.73,17,12,20,0.00
2014-4-26,74,55,51,53,47,-100,100,81,43,29.91,29.73,32,14,37,0.00
2014-4-27,64,55,50,45,42,39,67,62,49,30.12,29.88,21,14,23,0.00
2014-4-28,57,52,49,51,46,42,100,80,69,30.15,30.03,18,11,20,0.00
2014-4-29,51,49,48,51,49,48,100,100,100,30.22,30.09,26,20,29,0.00
2014-4-30,65,57,50,58,-17,-100,100,54,100,30.24,29.87,34,17,40,0.00
2014-5-1,68,62,58,67,-19,-100,100,47,65,29.86,29.71,23,11,24,0.00
2014-5-13,72,62,59,69,62,59,100,98,89,30.23,30.14,18,14,21,0.00
2014-5-14,66,61,58,66,61,58,100,100,100,30.26,30.16,16,10,17,0.00
2014-5-15,73,67,62,73,-31,-100,100,41,100,30.17,29.96,24,14,26,0.00
2014-5-16,70,61,56,70,55,-100,100,92,82,29.95,29.77,37,21,41,0.00
2014-5-17,65,59,54,56,48,-100,84,69,49,30.17,29.95,16,8,18,0.00
2014-5-18,64,59,54,50,46,43,74,63,45,30.25,30.17,15,10,16,0.00
2014-5-19,70,56,53,51,39,-100,76,61,45,30.30,30.17,15,9,16,0.00
2014-5-20,71,64,58,67,54,-100,100,71,56,30.22,30.04,15,8,16,0.00
2014-5-21,67,66,64,67,66,64,100,100,99,30.02,29.92,15,9,16,0.00
2014-5-22,73,68,64,73,67,-100,100,98,80,29.91,29.79,22,9,24,0.00
2014-5-23,74,68,61,61,55,51,81,65,54,30.01,29.89,21,16,25,0.00
2014-5-24,69,63,57,67,56,-100,100,79,62,30.11,30.01,16,11,20,0.00
2014-5-25,72,68,61,70,63,59,100,85,67,30.19,30.10,13,7,14,0.00
2014-5-26,82,73,66,74,68,65,100,87,56,30.14,29.99,15,9,16,0.00
2014-5-27,85,75,69,75,72,69,100,90,66,29.99,29.86,16,11,28,0.00
2014-5-28,78,71,59,78,70,59,100,99,87,30.10,29.85,25,12,28,0.00
2014-5-29,59,56,55,59,56,55,100,100,100,30.22,30.11,22,14,23,0.00
2014-5-30,68,60,56,67,60,56,100,99,83,30.16,30.09,13,8,14,0.00
2014-5-31,73,67,64,65,58,-100,100,75,46,30.27,30.09,16,12,18,0.00
2014-6-1,70,65,61,65,57,45,98,75,53,30.39,30.27,20,8,22,0.00
2014-6-2,71,66,60,69,61,53,100,83,65,30.31,30.08,20,15,22,0.00
2014-6-3,74,70,67,74,70,67,100,100,94,30.09,29.87,18,10,20,0.00
2014-6-4,80,74,71,75,71,65,100,91,61,29.88,29.75,17,8,20,0.00
2014-6-5,76,70,63,72,66,60,100,86,58,29.86,29.60,23,12,25,0.00
2014-6-6,73,68,64,70,60,55,100,75,62,30.01,29.86,16,9,18,0.00
2014-6-7,78,70,65,72,64,-100,100,84,62,30.07,29.97,11,6,11,0.00
2014-6-8,76,73,70,75,71,67,100,93,73,29.99,29.87,23,12,25,0.00
2014-6-9,76,74,72,76,74,72,100,100,100,29.92,29.86,24,14,28,0.00
2014-6-10,79,75,73,78,75,73,100,100,96,29.94,29.88,14,8,17,0.00
2014-6-16,79,75,70,79,75,70,100,100,94,30.16,30.07,13,7,14,0.00
2014-6-17,83,79,75,82,78,75,100,99,92,30.12,29.98,18,10,20,0.00
2014-6-18,90,84,78,83,78,74,100,84,61,30.01,29.94,20,11,21,0.00
2014-6-19,82,76,73,82,76,72,100,97,77,30.04,29.94,23,11,24,0.00
2014-6-20,78,73,68,73,64,57,100,76,51,30.06,29.95,14,9,16,0.00
2014-6-21,75,71,68,70,65,-100,100,86,60,29.96,29.89,18,9,20,0.00
2014-6-22,77,72,67,74,70,67,100,93,75,30.02,29.90,14,6,15,0.00
2014-6-24,78,74,69,78,74,69,100,99,90,30.18,30.03,24,17,26,0.00
2014-6-25,79,77,74,79,77,74,100,100,100,30.04,29.84,24,15,29,0.00
2014-6-26,83,78,72,79,75,72,100,92,73,29.98,29.86,17,8,20,0.00
2014-6-27,78,76,72,77,74,68,100,96,79,30.20,29.99,16,11,17,0.00
2014-6-28,79,73,69,71,67,-100,100,84,70,30.30,30.22,18,8,21,0.00
2014-6-29,79,75,70,71,69,66,100,83,67,30.27,30.14,16,8,18,0.00
2014-6-30,79,76,72,79,75,69,100,98,77,30.14,29.97,18,14,21,0.00
2014-7-4,77,74,71,77,68,58,100,81,55,30.15,29.94,31,22,37,0.00
2014-7-5,78,70,64,65,58,56,85,65,53,30.27,30.17,16,12,20,0.00
2014-7-6,79,75,69,78,70,63,100,84,69,30.18,29.97,25,16,28,0.00
2014-7-7,88,79,73,81,75,71,100,88,60,29.97,29.83,22,15,24,0.00
2014-7-8,89,81,73,83,77,73,100,88,63,29.88,29.73,41,17,47,0.00
2014-7-9,81,76,74,81,76,74,100,100,100,29.98,29.85,14,9,15,0.00
2014-7-10,79,75,73,79,75,73,100,100,100,30.13,29.98,16,8,17,0.00
2014-7-11,83,76,71,78,74,71,100,96,78,30.22,30.13,15,7,18,0.00
2014-7-12,81,77,74,80,76,71,100,96,69,30.24,30.13,24,13,26,0.00
2014-7-13,83,79,75,83,79,75,100,100,100,30.14,29.93,23,19,25,0.00
2014-7-14,84,80,76,84,80,76,100,100,100,29.98,29.80,37,11,47,0.00
2014-7-15,82,78,72,82,78,72,100,100,100,29.85,29.73,18,10,21,0.00
2014-7-16,78,75,72,74,68,63,100,80,60,29.93,29.78,16,10,20,0.00
2014-7-17,79,74,68,68,65,62,96,73,58,30.14,29.93,14,7,15,0.00
2014-7-18,79,75,72,72,65,57,98,71,48,30.25,30.14,15,7,17,0.00
2014-7-19,76,74,73,74,65,60,100,75,61,30.22,30.15,15,9,17,0.00
2014-7-20,77,73,71,77,73,71,100,100,100,30.14,30.08,14,10,16,0.00
2014-7-21,79,74,70,78,74,70,100,99,93,30.22,30.14,13,7,15,0.00
2014-7-22,81,77,74,79,76,73,100,96,75,30.22,30.09,20,11,21,0.00
2014-7-23,82,79,74,82,79,74,100,100,100,30.09,29.82,24,15,25,0.00
2014-7-24,78,75,73,78,73,66,100,93,69,29.94,29.85,17,11,20,0.00
2014-7-25,78,74,67,69,63,58,91,69,57,30.08,29.94,21,11,23,0.00
2014-7-26,80,76,72,79,75,72,100,98,85,30.02,29.92,21,12,22,0.00
2014-7-27,81,77,74,81,77,74,100,100,99,29.90,29.66,21,13,22,0.00
2014-7-28,81,78,72,79,72,64,100,81,58,29.81,29.59,24,17,28,0.00
2014-7-29,73,69,65,70,63,56,100,81,59,30.02,29.81,18,13,21,0.00
2014-7-30,76,70,63,64,62,59,100,77,62,30.10,30.02,14,10,16,0.00
2014-7-31,79,74,68,79,72,66,100,94,76,30.14,30.07,20,14,22,0.00
2014-8-1,78,75,70,78,75,70,100,99,92,30.22,30.15,18,12,21,0.00
2014-8-2,76,71,66,76,71,66,100,98,100,30.18,30.09,18,10,21,0.00
2014-8-3,77,72,69,77,72,69,100,100,100,30.11,30.03,16,9,18,0.00
2014-8-4,78,74,67,75,72,67,100,96,85,30.12,30.06,11,6,13,0.00
2014-8-5,83,78,72,77,73,69,100,86,63,30.09,29.96,7,4,7,0.00
2014-8-6,78,75,71,76,73,69,100,91,77,29.96,29.92,14,7,16,0.00
2014-8-7,80,75,72,75,69,64,100,82,57,30.04,29.94,15,9,17,0.00
2014-8-8,77,74,72,74,65,60,97,73,62,30.16,30.06,14,7,14,0.00
2014-8-9,79,76,75,77,69,65,100,81,66,30.15,30.09,9,6,10,0.00
2014-8-10,81,76,72,78,73,69,100,91,66,30.16,30.09,18,6,20,0.00
2014-8-11,80,76,72,75,72,67,100,89,65,30.14,30.05,20,11,22,0.00
2014-8-12,77,75,73,77,75,73,100,100,100,30.04,29.78,26,17,30,0.00
2014-8-13,80,76,73,77,70,64,100,84,65,29.90,29.75,22,14,24,0.00
2014-8-14,80,74,68,68,63,58,83,69,58,29.97,29.86,16,12,18,0.00
2014-8-15,75,69,63,62,58,54,77,67,55,30.04,29.94,11,9,14,0.00
2014-8-16,77,72,71,66,61,58,79,66,59,30.05,29.96,11,6,13,0.00
2014-8-17,78,78,78,74,74,74,87,87,87,29.93,29.93,15,15,16,0.00
2014-8-22,78,75,73,78,75,73,100,100,100,30.02,29.96,17,10,21,0.00
2014-8-23,73,70,69,73,70,69,100,99,100,30.06,30.00,17,13,20,0.00
2014-8-24,75,71,69,69,68,66,100,89,75,30.16,30.09,14,10,16,0.00
2014-8-25,79,75,72,67,67,66,83,74,64,30.20,30.15,13,7,15,0.00
2014-8-26,81,79,75,71,66,63,77,64,55,30.16,30.11,15,8,16,0.00
2014-8-27,80,76,71,72,67,65,86,74,59,30.12,29.93,11,7,14,0.00
2014-8-28,80,77,73,71,62,55,79,60,42,30.09,29.89,18,14,21,0.00
2014-8-29,74,70,66,62,55,51,74,58,48,30.24,30.10,23,11,25,0.00
2014-8-30,78,73,70,72,65,62,86,75,64,30.27,30.14,21,13,22,0.00
2014-8-31,82,78,74,75,74,71,97,86,75,30.16,30.01,23,16,24,0.00
2014-9-1,83,78,74,78,74,72,94,87,78,30.06,29.97,14,7,15,0.00
2014-9-2,85,82,78,77,73,70,90,76,64,30.01,29.87,15,9,16,0.00
2014-9-3,81,78,76,72,66,58,83,68,47,30.15,29.91,17,7,18,0.00
2014-9-4,81,78,75,75,69,65,89,74,66,30.20,30.13,20,9,21,0.00
2014-9-5,83,79,76,77,74,72,91,83,76,30.19,30.05,24,12,28,0.00
2014-9-6,89,76,74,76,68,70,87,73,52,30.06,29.88,20,12,22,0.00
2014-9-7,76,73,69,72,60,55,92,66,48,30.18,29.98,22,13,24,0.00
2014-9-8,73,72,70,66,62,58,82,71,60,30.27,30.18,23,14,26,0.00
2014-9-9,75,72,69,66,64,62,84,77,67,30.22,30.11,20,15,22,0.00
2014-9-10,77,72,68,69,63,60,89,74,56,30.16,30.03,22,10,24,0.00
2014-9-11,80,76,72,75,70,68,89,82,70,30.03,29.88,25,16,28,0.00
2014-9-12,78,70,65,68,58,55,72,66,57,30.16,29.98,21,15,23,0.00
2014-9-13,71,67,65,65,60,56,91,78,60,30.23,30.12,17,9,21,0.00
2014-9-14,66,63,60,58,51,48,82,65,56,30.34,30.22,18,10,22,0.00
2014-9-15,70,66,62,62,53,49,84,64,53,30.28,30.10,20,7,21,0.00
2014-9-16,73,70,65,64,58,53,90,67,48,30.08,30.00,21,13,23,0.00
2014-9-17,72,68,64,56,51,45,72,56,39,30.09,30.00,14,6,15,0.00
2014-9-18,71,68,65,61,58,53,76,70,59,30.12,29.99,14,8,16,0.00
2014-9-19,71,66,60,63,58,53,88,75,61,30.34,30.13,20,13,22,0.00
2014-9-20,74,69,66,66,61,60,85,75,63,30.32,30.07,16,9,20,0.00
2014-9-21,77,70,67,69,65,62,95,81,63,30.07,29.68,15,7,16,0.00
2014-9-22,74,67,62,64,50,46,70,54,45,30.24,29.74,22,17,25,0.00
2014-9-23,66,60,54,53,47,45,78,61,48,30.40,30.24,20,11,21,0.00
2014-9-24,70,65,61,59,56,51,81,72,63,30.47,30.39,25,17,30,0.00
2014-9-28,74,69,65,65,62,59,89,79,62,30.22,30.09,7,4,8,0.00
2014-9-29,69,68,66,65,62,59,89,81,70,30.07,29.96,14,6,15,0.00
2014-9-30,73,68,65,65,62,59,93,82,62,29.97,29.90,15,6,17,0.00
2014-10-1,71,67,64,62,61,58,91,80,65,30.09,29.97,14,9,15,0.00
2014-10-2,70,66,64,61,58,56,84,76,61,30.16,30.09,13,8,15,0.00
2014-10-3,71,66,64,63,60,56,87,79,72,30.15,29.79,29,16,31,0.00
2014-10-4,71,64,52,68,52,30,92,66,39,29.85,29.63,30,18,33,0.00
2014-10-5,61,54,50,38,34,32,55,46,36,29.98,29.86,18,10,22,0.00
2014-10-6,69,63,55,58,48,42,71,59,46,30.07,29.98,33,22,37,0.00
2014-10-7,70,66,63,63,56,52,88,70,56,30.09,29.92,31,21,38,0.00
2014-10-8,73,67,61,60,54,47,90,64,40,30.04,29.88,26,15,29,0.00
2014-10-9,69,64,59,54,46,38,67,53,39,30.16,30.04,15,9,16,0.00
2014-10-10,64,60,56,52,48,45,80,65,54,30.16,30.09,15,10,17,0.00
2014-10-11,58,55,55,54,53,52,95,90,83,30.19,30.01,23,16,26,0.00
2014-10-12,62,58,54,53,48,42,87,70,60,30.32,30.20,20,12,22,0.00
2014-10-13,68,63,60,65,59,51,96,87,70,30.33,30.23,17,10,18,0.00
2014-10-14,73,70,67,67,65,64,93,85,75,30.22,30.02,26,18,29,0.00
2014-10-15,72,70,66,69,67,63,96,90,85,30.01,29.78,32,18,34,0.00
2014-10-16,65,62,59,63,57,54,94,85,75,29.80,29.75,16,9,18,0.00
2014-10-17,67,64,59,62,55,49,86,74,52,29.86,29.73,23,14,24,0.00
2014-10-18,68,62,55,55,49,41,81,62,40,29.88,29.65,25,18,30,0.00
2014-10-19,57,54,51,43,36,29,68,52,34,30.14,29.88,24,16,30,0.00